Latest Coastal Weather Observations for Wilsons Promontory

IDV60701

Issued at 10:35 pm EST Saturday 19 April 2014 (issued every 10 minutes, with the page automatically refreshed every 10 minutes)

About coastal observations | Map of coastal stations | Coastal observations for VIC | Marine services | Other Formats
Station Details ID: 085096 Name: WILSONS PROMONTORY LIGHTHOUSE Lat: -39.13 Lon: 146.42 Height: 95.0 m
Data from the previous 72 hours. | See also: Recent months at Wilsons Promontory
Date/Time
EST
Temp

°C
Wind Pressure Rain
since 9am
mm
Weather Cloud Vis
km
Sea
Height
m
Swell
Dir
 
Speed
knots
Gust
knots
hPa Trend Height
m
Period
s
Dir
19/10:30pm 12.0 WNW 9 12 1016.8 - 0.2 - - - - - - -
19/10:00pm 11.8 WNW 9 12 1017.1 - 0.2 - - - - - - -
19/09:30pm 11.3 WNW 7 11 1017.3 - 0.2 - - - - - - -
19/09:00pm 11.2 WNW 18 25 1017.1 - 0.2 - - - - - - -
19/08:43pm 12.3 W 16 26 1017.1 - 0.2 - - - - - - -
19/08:34pm 12.7 W 20 27 1016.7 - 0.2 - - - - - - -
19/08:30pm 13.1 SW 19 25 1016.6 - 0.2 - - - - - - -
19/08:00pm 13.3 W 11 16 1017.2 - 0.2 - - - - - - -
19/07:30pm 13.2 W 11 17 1017.2 - 0.2 - - - - - - -
19/07:00pm 13.3 WSW 11 19 1017.1 - 0.2 - - - - - - -
19/06:30pm 13.4 W 17 25 1016.9 - 0.2 - - - - - - -
19/06:27pm 13.3 WSW 20 30 1016.8 - 0.2 - - - - - - -
19/06:00pm 13.5 W 15 22 1016.5 - 0.2 - - - - - - -
19/05:30pm 13.3 W 16 22 1016.5 - 0.2 - - - - - - -
19/05:00pm 13.0 WSW 20 25 1016.6 - 0.2 - - - - - - -
19/04:30pm 13.1 SW 22 29 1016.4 - 0.2 - - - - - - -
19/04:11pm 13.3 SW 20 27 1016.4 - 0.2 - - - - - - -
19/04:00pm 13.8 WSW 22 29 1016.5 - 0.2 - - - - - - -
19/03:30pm 13.4 WSW 26 31 1016.0 - 0.2 - - - - - - -
19/03:00pm 13.5 WSW 24 34 1016.2 - 0.2 - - - - - - -
19/02:52pm 13.5 WSW 24 34 1016.0 - 0.2 - - - - - - -
19/02:30pm 13.5 WSW 26 31 1016.3 - 0.2 - - - - - - -
19/02:10pm 13.7 WSW 25 28 1016.5 - 0.2 - - - - - - -
19/02:00pm 13.5 W 13 23 1016.7 - 0.2 - - - - - - -
19/01:30pm 12.9 W 13 17 1017.1 - 0.2 - - - - - - -
19/01:00pm 13.1 W 18 24 1017.2 - 0.0 - - - - - - -
19/12:30pm 13.8 WSW 19 27 1017.3 - 0.0 - - - - - - -
19/12:00pm 13.5 SW 16 23 1017.5 - 0.0 - - - - - - -
19/11:30am 13.0 NE 8 14 1017.7 - 0.0 - - - - - - -
19/11:09am 12.8 NE 10 28 1017.2 - 0.0 - - - - - - -
19/11:04am 12.8 SW 20 30 1017.1 - 0.0 - - - - - - -
19/11:00am 12.7 SW 21 30 1016.9 - 0.0 - - - - - - -
19/10:30am 13.4 SW 17 29 1017.8 - 0.0 - - - - - - -
19/10:04am 13.1 SW 15 29 1017.9 - 0.0 - - - - - - -
19/10:00am 13.2 SW 13 28 1017.8 - 0.0 - - - - - - -
19/09:30am 12.5 NE 8 17 1017.8 - 0.0 - - - - - - -
19/09:02am 13.3 SW 17 28 1017.4 - 0.0 - - - - - - -
19/09:00am 13.3 SW 16 22 1017.4 - 2.6 - - - - - - -
19/08:30am 12.3 SW 13 24 1017.5 - 2.6 - - - - - - -
19/08:19am 11.6 N 12 29 1017.0 - 2.6 - - - - - - -
19/08:01am 12.0 SW 27 37 1016.3 - 2.6 - - - - - - -
19/08:00am 11.9 SW 28 37 1016.1 - 2.6 - - - - - - -
19/07:52am 13.1 SW 31 35 1016.7 - 2.6 - - - - - - -
19/07:30am 13.1 SW 21 28 1016.7 - 2.6 - - - - - - -
19/07:00am 12.7 W 25 36 1016.1 - 2.6 - - - - - - -
19/06:58am 12.9 W 24 36 1015.9 - 2.6 - - - - - - -
19/06:43am 13.1 SW 28 38 1015.8 - 2.6 - - - - - - -
19/06:36am 13.0 SW 34 38 1015.6 - 2.6 - - - - - - -
19/06:32am 12.9 SW 23 33 1015.6 - 2.6 - - - - - - -
19/06:31am 13.0 SW 25 33 1015.7 - 2.6 - - - - - - -
19/06:30am 13.0 SSE 16 33 1015.8 - 2.6 - - - - - - -
19/06:27am 12.9 E 11 33 1015.9 - 2.6 - - - - - - -
19/06:14am 13.1 SW 22 32 1015.8 - 2.6 - - - - - - -
19/06:13am 12.9 SW 26 32 1015.8 - 2.6 - - - - - - -
19/06:01am 12.8 NE 9 33 1015.8 - 2.6 - - - - - - -
19/06:00am 13.0 SW 20 33 1015.6 - 2.6 - - - - - - -
19/05:40am 12.5 SW 22 33 1015.4 - 2.6 - - - - - - -
19/05:39am 12.7 S 15 29 1015.3 - 2.6 - - - - - - -
19/05:30am 12.4 NE 10 37 1014.8 - 2.6 - - - - - - -
19/05:29am 12.9 NW 14 37 1015.0 - 2.6 - - - - - - -
19/05:00am 12.9 SW 32 39 1015.1 - 2.6 - - - - - - -
19/04:30am 12.4 SW 25 41 1014.6 - 2.6 - - - - - - -
19/04:23am 13.0 SW 23 38 1015.4 - 2.6 - - - - - - -
19/04:09am 12.4 SW 16 27 1015.5 - 2.6 - - - - - - -
19/04:00am 12.1 SSE 11 25 1015.1 - 2.6 - - - - - - -
19/03:37am 13.2 SW 18 33 1015.0 - 2.6 - - - - - - -
19/03:30am 13.0 SW 29 35 1015.4 - 2.6 - - - - - - -
19/03:17am 12.4 SW 22 43 1015.0 - 2.6 - - - - - - -
19/03:11am 13.2 SW 33 43 1014.7 - 2.6 - - - - - - -
19/03:00am 13.3 SW 31 36 1015.2 - 2.6 - - - - - - -
19/02:37am 12.8 SSW 23 42 1015.0 - 2.6 - - - - - - -
19/02:35am 12.7 SSW 23 43 1014.6 - 2.6 - - - - - - -
19/02:34am 12.6 E 19 43 1014.4 - 2.6 - - - - - - -
19/02:30am 12.8 SW 33 43 1014.7 - 2.6 - - - - - - -
19/02:20am 13.3 WSW 29 39 1015.6 - 2.6 - - - - - - -
19/02:15am 13.2 SW 29 41 1015.8 - 2.6 - - - - - - -
19/02:13am 12.5 W 18 41 1016.3 - 2.6 - - - - - - -
19/02:12am 12.3 W 16 41 1016.4 - 2.6 - - - - - - -
19/02:08am 12.5 W 30 41 1015.7 - 2.6 - - - - - - -
19/02:07am 12.6 W 32 41 1015.7 - 2.6 - - - - - - -
19/02:02am 13.6 SW 28 38 1015.3 - 2.6 - - - - - - -
19/02:00am 13.4 SW 28 36 1015.5 - 2.6 - - - - - - -
19/01:30am 13.3 SW 29 36 1015.8 - 2.6 - - - - - - -
19/01:13am 13.5 SW 29 39 1015.6 - 2.6 - - - - - - -
19/01:10am 13.5 SW 30 37 1015.5 - 2.6 - - - - - - -
19/01:04am 13.2 SSW 15 25 1015.9 - 2.6 - - - - - - -
19/01:00am 13.2 NW 10 21 1015.9 - 2.6 - - - - - - -
19/12:49am 13.3 SE 14 37 1015.6 - 2.6 - - - - - - -
19/12:30am 13.5 SW 30 42 1015.3 - 2.6 - - - - - - -
19/12:28am 13.6 SW 31 42 1015.5 - 2.6 - - - - - - -
19/12:27am 13.4 SW 34 42 1015.4 - 2.6 - - - - - - -
19/12:21am 13.2 SW 22 35 1015.6 - 2.6 - - - - - - -
19/12:20am 13.1 SW 20 29 1015.6 - 2.6 - - - - - - -
19/12:15am 13.1 NW 14 34 1015.1 - 2.6 - - - - - - -
19/12:06am 14.0 SSW 21 42 1015.2 - 2.6 - - - - - - -
19/12:00am 14.0 SW 35 43 1014.9 - 2.6 - - - - - - -
 
Date/Time
EST
Temp

°C
Wind Pressure Rain
since 9am
mm
Weather Cloud Vis
km
Sea
Height
m
Swell
Dir
 
Speed
knots
Gust
knots
hPa Trend Height
m
Period
s
Dir
18/11:30pm 14.0 WSW 37 47 1014.9 - 2.6 - - - - - - -
18/11:29pm 14.1 WSW 37 47 1014.8 - 2.6 - - - - - - -
18/11:00pm 14.3 WSW 33 42 1015.2 - 2.6 - - - - - - -
18/10:43pm 14.0 WSW 35 46 1015.8 - 2.6 - - - - - - -
18/10:30pm 14.2 WSW 37 46 1015.0 - 2.6 - - - - - - -
18/10:23pm 14.3 WSW 38 48 1015.5 - 2.6 - - - - - - -
18/10:00pm 14.4 WSW 37 42 1015.2 - 2.6 - - - - - - -
18/09:54pm 14.1 WSW 35 41 1015.5 - 2.6 - - - - - - -
18/09:42pm 13.7 W 21 32 1016.0 - 2.6 - - - - - - -
18/09:30pm 13.5 W 22 31 1016.3 - 2.6 - - - - - - -
18/09:00pm 13.3 W 27 37 1015.1 - 2.6 - - - - - - -
18/08:31pm 13.5 W 30 45 1015.7 - 2.6 - - - - - - -
18/08:30pm 13.5 W 31 49 1015.6 - 2.6 - - - - - - -
18/08:27pm 13.8 W 32 49 1015.3 - 2.6 - - - - - - -
18/08:00pm 14.2 SW 42 47 1014.4 - 2.6 - - - - - - -
18/07:30pm 14.7 WSW 39 46 1014.4 - 2.6 - - - - - - -
18/07:00pm 14.2 SW 38 44 1014.4 - 2.6 - - - - - - -
18/06:59pm 14.2 SW 37 41 1014.5 - 2.6 - - - - - - -
18/06:42pm 13.4 W 25 35 1015.1 - 2.6 - - - - - - -
18/06:30pm 13.7 W 25 35 1014.8 - 2.6 - - - - - - -
18/06:23pm 13.8 WSW 28 45 1014.5 - 2.6 - - - - - - -
18/06:16pm 13.5 WSW 39 49 1013.7 - 2.6 - - - - - - -
18/06:01pm 13.5 SW 45 51 1013.3 - 2.6 - - - - - - -
18/06:00pm 13.5 W 33 50 1013.7 - 2.6 - - - - - - -
18/05:30pm 14.7 WSW 34 46 1013.3 - 2.4 - - - - - - -
18/05:19pm 14.7 WSW 34 45 1013.3 - 2.4 - - - - - - -
18/05:17pm 14.8 WSW 39 45 1013.0 - 2.4 - - - - - - -
18/05:14pm 14.8 W 23 36 1013.8 - 2.4 - - - - - - -
18/05:11pm 14.4 W 24 40 1013.7 - 2.4 - - - - - - -
18/05:00pm 14.6 WSW 37 50 1013.2 - 2.4 - - - - - - -
18/04:33pm 14.9 WSW 40 50 1012.2 - 2.4 - - - - - - -
18/04:30pm 14.9 WSW 40 48 1012.4 - 2.4 - - - - - - -
18/04:00pm 14.9 WSW 39 51 1011.9 - 2.4 - - - - - - -
18/03:30pm 15.2 WSW 37 48 1011.7 - 2.4 - - - - - - -
18/03:16pm 15.3 WSW 39 49 1011.7 - 2.4 - - - - - - -
18/03:08pm 15.2 WSW 45 50 1011.3 - 2.4 - - - - - - -
18/03:03pm 15.5 W 33 43 1011.9 - 2.4 - - - - - - -
18/03:00pm 15.2 W 34 43 1011.6 - 2.4 - - - - - - -
18/02:37pm 15.5 WSW 38 48 1011.6 - 2.4 - - - - - - -
18/02:30pm 15.4 WSW 42 49 1011.2 - 2.4 - - - - - - -
18/02:17pm 15.4 WSW 42 52 1011.0 - 2.4 - - - - - - -
18/02:00pm 15.4 WSW 44 51 1010.4 - 2.4 - - - - - - -
18/01:39pm 15.2 WSW 47 51 1010.4 - 2.4 - - - - - - -
18/01:36pm 15.1 W 35 53 1010.7 - 2.4 - - - - - - -
18/01:30pm 14.9 WSW 46 53 1010.4 - 2.4 - - - - - - -
18/01:00pm 14.7 WSW 42 49 1010.3 - 2.4 - - - - - - -
18/12:30pm 14.1 WSW 41 47 1010.7 - 2.4 - - - - - - -
18/12:01pm 14.1 SW 38 49 1010.2 - 2.4 - - - - - - -
18/12:00pm 14.5 SW 38 44 1010.5 - 2.4 - - - - - - -
18/11:47am 14.1 SW 32 48 1010.2 - 2.4 - - - - - - -
18/11:34am 13.9 WSW 45 50 1010.0 - 2.4 - - - - - - -
18/11:30am 14.2 WSW 34 48 1010.6 - 2.4 - - - - - - -
18/11:11am 14.5 W 30 47 1010.6 - 1.0 - - - - - - -
18/11:08am 16.1 W 30 39 1010.8 - 0.4 - - - - - - -
18/11:00am 16.8 W 18 30 1011.0 - 0.0 - - - - - - -
18/10:30am 16.5 W 15 27 1011.5 - 0.0 - - - - - - -
18/10:00am 16.8 WNW 16 28 1011.8 - 0.0 - - - - - - -
18/09:38am 16.4 WNW 21 31 1011.9 - 0.0 - - - - - - -
18/09:30am 16.3 NW 10 24 1012.0 - 0.0 - - - - - - -
18/09:00am 16.9 NW 14 25 1012.2 - 0.0 - - - - - - -
18/08:30am 16.4 NW 14 25 1012.4 - 0.0 - - - - - - -
18/08:00am 15.8 NW 18 29 1012.7 - 0.0 - - - - - - -
18/07:30am 15.6 NW 17 28 1012.4 - 0.0 - - - - - - -
18/07:00am 15.5 NW 18 28 1012.6 - 0.0 - - - - - - -
18/06:30am 15.6 NW 16 26 1012.4 - 0.0 - - - - - - -
18/06:00am 15.8 NW 19 29 1012.4 - 0.0 - - - - - - -
18/05:30am 15.9 NW 17 29 1012.6 - 0.0 - - - - - - -
18/05:00am 15.8 NW 19 32 1012.9 - 0.0 - - - - - - -
18/04:30am 16.8 NW 15 27 1013.3 - 0.0 - - - - - - -
18/04:00am 17.8 NNW 18 28 1013.0 - 0.0 - - - - - - -
18/03:52am 17.9 NNW 18 28 1013.0 - 0.0 - - - - - - -
18/03:30am 17.5 NNW 16 21 1013.2 - 0.0 - - - - - - -
18/03:00am 17.3 N 13 17 1013.4 - 0.0 - - - - - - -
18/02:30am 15.7 NNE 12 15 1014.0 - 0.0 - - - - - - -
18/02:00am 15.7 NNE 12 15 1014.4 - 0.0 - - - - - - -
18/01:30am 15.6 NNE 13 16 1015.1 - 0.0 - - - - - - -
18/01:00am 15.9 NNE 14 16 1015.5 - 0.0 - - - - - - -
18/12:30am 15.9 NNE 11 14 1016.0 - 0.0 - - - - - - -
18/12:00am 15.9 NNE 10 14 1016.5 - 0.0 - - - - - - -
 
Date/Time
EST
Temp

°C
Wind Pressure Rain
since 9am
mm
Weather Cloud Vis
km
Sea
Height
m
Swell
Dir
 
Speed
knots
Gust
knots
hPa Trend Height
m
Period
s
Dir
17/11:30pm 15.8 NNE 10 11 1017.0 - 0.0 - - - - - - -
17/11:00pm 15.9 N 10 11 1017.5 - 0.0 - - - - - - -
17/10:30pm 15.8 N 10 12 1017.8 - 0.0 - - - - - - -
17/10:00pm 15.6 N 9 11 1018.1 - 0.0 - - - - - - -
17/09:30pm 15.8 N 10 12 1018.1 - 0.0 - - - - - - -
17/09:00pm 15.5 N 10 12 1017.9 - 0.0 - - - - - - -
17/08:30pm 15.4 N 10 11 1018.1 - 0.0 - - - - - - -
17/08:00pm 15.3 NNE 10 11 1018.2 - 0.0 - - - - - - -
17/07:30pm 15.5 N 8 9 1018.3 - 0.0 - - - - - - -
17/07:00pm 15.6 NNE 9 12 1018.4 - 0.0 - - - - - - -
17/06:30pm 15.6 NNE 9 11 1018.4 - 0.0 - - - - - - -
17/06:00pm 15.5 NNE 8 9 1018.2 - 0.0 - - - - - - -
17/05:30pm 15.7 NNE 7 8 1018.4 - 0.0 - - - - - - -
17/05:00pm 16.2 NNE 5 5 1018.5 - 0.0 - - - - - - -
17/04:30pm 16.8 NNE 4 5 1018.6 - 0.0 - - - - - - -
17/04:00pm 16.8 ENE 3 4 1018.7 - 0.0 - - - - - - -
17/03:30pm 16.9 SSE 1 3 1018.9 - 0.0 - - - - - - -
17/03:00pm 17.3 SW 3 4 1018.9 - 0.0 - - - - - - -
17/02:30pm 17.8 SW 3 5 1019.2 - 0.0 - - - - - - -
17/02:00pm 18.2 SW 4 5 1019.4 - 0.0 - - - - - - -
17/01:30pm 18.0 SW 3 5 1019.5 - 0.0 - - - - - - -
17/01:00pm 17.5 CALM 0 3 1019.7 - 0.0 - - - - - - -
17/12:30pm 17.7 ESE 3 4 1020.0 - 0.0 - - - - - - -
17/12:00pm 16.5 ENE 3 4 1020.2 - 0.0 - - - - - - -
17/11:30am 17.1 E 4 5 1020.4 - 0.0 - - - - - - -
17/11:00am 17.2 ESE 4 5 1020.5 - 0.0 - - - - - - -
17/10:30am 17.0 E 4 5 1020.6 - 0.0 - - - - - - -
17/10:00am 17.2 ESE 5 6 1020.6 - 0.0 - - - - - - -
17/09:30am 17.1 ESE 4 5 1020.7 - 0.0 - - - - - - -
17/09:00am 17.1 E 4 5 1020.7 - 0.0 - - - - - - -
17/08:30am 17.3 ENE 3 5 1020.6 - 0.0 - - - - - - -
17/08:00am 17.2 NE 5 6 1020.4 - 0.0 - - - - - - -
17/07:30am 16.1 NNW 4 6 1020.2 - 0.0 - - - - - - -
17/07:00am 14.9 WNW 8 10 1020.0 - 0.0 - - - - - - -
17/06:30am 14.8 WNW 7 10 1019.7 - 0.0 - - - - - - -
17/06:00am 14.9 N 4 7 1019.5 - 0.0 - - - - - - -
17/05:30am 15.0 NW 7 11 1019.3 - 0.0 - - - - - - -
17/05:00am 14.6 NNE 5 7 1019.4 - 0.0 - - - - - - -
17/04:30am 14.8 N 8 10 1019.4 - 0.0 - - - - - - -
17/04:00am 14.9 NNE 9 12 1019.1 - 0.0 - - - - - - -
17/03:30am 14.8 N 11 14 1018.8 - 0.0 - - - - - - -
17/03:00am 14.8 N 12 16 1018.6 - 0.0 - - - - - - -
17/02:30am 14.7 N 11 15 1018.8 - 0.0 - - - - - - -
17/02:00am 14.9 N 12 17 1018.9 - 0.0 - - - - - - -
17/01:30am 15.0 N 12 16 1019.2 - 0.0 - - - - - - -
17/01:00am 15.1 NNE 11 19 1019.1 - 0.0 - - - - - - -
17/12:30am 14.9 NNE 11 17 1019.2 - 0.0 - - - - - - -
17/12:00am 14.9 NNE 13 19 1019.0 - 0.0 - - - - - - -
 
Date/Time
EST
Temp

°C
Wind Pressure Rain
since 9am
mm
Weather Cloud Vis
km
Sea
Height
m
Swell
Dir
 
Speed
knots
Gust
knots
hPa Trend Height
m
Period
s
Dir
16/11:30pm 14.9 NNE 12 17 1019.4 - 0.0 - - - - - - -
16/11:00pm 15.0 NNE 11 16 1019.7 - 0.0 - - - - - - -

Other Formats:

Comma delimited format used in spreadsheet applications
http://www.bom.gov.au/fwo/IDV60701/IDV60701.94893.axf

JavaScript Object Notation format (JSON) in row-major order
http://www.bom.gov.au/fwo/IDV60701/IDV60701.94893.json